Location: Autenhausen
(50.2392°N, 10.7848°E)
Time: 14:42:30
(UTC+00:00)

Daily predictions for brighter satellites

Satellite Brightness Start Highest point End
(mag) Time Altitude Azimuth Time Altitude Azimuth Time Altitude Azimuth
BREEZE-M DEB 4.4 20:06:15 10° WSW 20:10:42 59° S 20:22:28 10° E
Cosmos 2056 Rocket 4.4 20:08:44 10° NNW 20:13:29 37° NE 20:18:12 10° SE
Okean-O 2.8 20:10:52 10° S 20:15:13 72° WSW 20:19:37 10° NNW
CZ-4 R/B 3.8 20:12:50 10° SW 20:15:33 19° W 20:18:19 10° NW
Helios 1A Rocket 3.0 20:18:14 10° N 20:21:19 54° WNW 20:24:22 10° SSW
USA 215 4.1 20:18:18 10° E 20:24:36 53° N 20:30:54 10° WNW
SL-08 R/B 3.6 20:20:18 10° N 20:24:52 69° WNW 20:29:24 10° SSW
Cosmos 1420 Rocket 4.0 20:19:44 10° NNW 20:24:58 77° ENE 20:30:08 10° SSE
Meteor 1-15 Rocket 4.4 20:23:44 10° N 20:29:29 64° ENE 20:35:05 10° SSE
Cosmos 1238 4.2 20:26:40 10° S 20:30:03 90° NW 20:33:06 10° N
NOSS 2-3 (C) 3.1 20:27:07 10° SW 20:30:30 81° NW 20:34:11 10° NE
Cosmos 1500 Rocket 4.5 20:28:34 10° NNW 20:32:41 45° W 20:36:46 10° SSW
Cosmos 2344 3.6 20:26:15 10° SSW 20:33:52 53° ESE 20:40:47 10° NE
Cosmos 1703 3.1 20:33:41 10° SSW 20:36:49 64° WNW 20:39:59 10° N
Ariane Rocket 3.0 20:32:18 10° SSE 20:37:21 76° ENE 20:42:27 10° NNW
USA 276 3.1 20:38:17 10° S 20:39:41 15° SE 20:41:11 10° ESE
IRS-1C Rocket 4.1 20:34:45 10° SSE 20:40:00 79° ENE 20:45:17 10° NNW
CZ-4B R/B 2.8 20:37:44 10° SSE 20:41:42 89° ENE 20:45:45 10° NNW
Cosmos 1538 Rocket 4.3 20:38:00 10° SSW 20:43:11 72° WNW 20:48:29 10° NNE
Cosmos 2315 Rocket 4.3 20:37:32 10° SSE 20:43:29 50° E 20:49:26 10° NNE
Iridium 4 Rocket 3.4 20:38:56 10° S 20:44:03 80° E 20:48:44 10° N
Okean O Rocket 2.8 20:40:04 10° SSW 20:44:09 38° W 20:48:16 10° NNW
Terra 4.1 20:41:09 10° SW 20:44:33 20° W 20:47:59 10° NW
Cosmos 1833 Rocket 3.4 20:39:47 10° NW 20:45:12 48° WSW 20:50:34 10° S
USA 59 Rocket 0.0 20:43:32 10° SSW 20:46:55 35° SE 20:49:46 10° ENE
Meteor 1-13 Rocket 4.4 20:41:58 10° S 20:47:53 77° E 20:53:51 10° NNE
Cosmos 923 Rocket 4.0 20:44:27 10° S 20:49:37 63° ESE 20:54:46 10° NNE
Lacrosse 4 Rocket 4.2 20:48:41 10° N 20:50:03 11° NNE 20:51:24 10° NE
Cosmos 1470 Rocket 4.0 20:46:33 10° N 20:50:54 51° ENE 20:54:40 13° SSE
NOSS 2-1 (D) 3.6 20:48:20 10° SSW 20:51:47 33° SE 20:54:39 10° ENE
CZ-4B R/B 3.6 20:47:01 10° SSE 20:52:11 89° W 20:57:29 10° NNW
Helios 1B rocket 4.5 20:52:43 10° ENE 20:53:55 11° ENE 20:55:05 10° NE
Cosmos 2112 Rocket 4.4 20:52:19 10° S 20:57:12 45° ESE 21:02:08 10° NE
Cosmos 1953 2.7 20:54:23 10° NNW 20:57:52 51° W 21:01:19 10° S
Cosmos 1328 Rocket 3.5 20:54:28 10° S 20:58:47 79° E 21:03:07 10° NNE
GP-B 3.4 20:56:50 10° N 21:01:12 68° W 21:05:31 10° SSW
S3M 4.0 20:55:22 10° S 21:01:28 82° E 21:07:41 10° N
Cosmos 1371 Rocket 4.0 21:00:34 10° NNW 21:05:50 85° ENE 21:10:11 15° SSE
Cosmos 883 Rocket 4.5 21:00:54 10° S 21:07:01 75° E 21:13:09 10° NNE
CZ-2C R/B 1.8 21:05:29 19° SSE 21:07:18 70° ENE 21:10:02 10° N
BREEZE-M R/B 3.7 21:03:34 10° SW 21:07:40 61° SSE 21:15:50 10° ENE
NOSS 3-2 (C) 4.5 21:02:45 10° WSW 21:07:50 47° NNW 21:14:02 10° NE
Cosmos 1709 Rocket 4.1 21:02:05 10° N 21:08:29 83° W 21:14:36 11° S
Cosmos 2082 Rocket 2.4 21:03:12 10° NNW 21:08:48 64° ENE 21:13:35 14° SE
NOSS 2-1 (C) 3.3 21:07:54 10° SSW 21:11:31 42° SE 21:14:30 10° NE
Cosmos 2278 Rocket 2.2 21:08:37 10° SSW 21:14:11 62° ESE 21:19:47 10° NE
Cosmos 494 Rocket 4.0 21:09:45 10° S 21:14:54 64° ESE 21:20:07 10° NNE
Cosmos 1666 Rocket 4.2 21:13:46 10° NNW 21:17:57 49° W 21:21:56 11° SSW
Helios 1A 4.0 21:15:12 10° NE 21:18:36 27° E 21:20:40 18° SE
Meteor 1-21 4.2 21:13:27 10° S 21:19:04 86° ESE 21:24:49 10° NNE
Meteor 1-16 Rocket 4.3 21:14:49 10° NNW 21:20:27 79° W 21:25:27 14° S
USA-17 4.2 21:17:55 10° NW 21:21:05 83° NE 21:23:13 20° SE
Timation 2 Rocket 4.4 21:15:17 10° S 21:21:17 48° ESE 21:27:34 10° NE
USA 238 DEB 3.5 21:17:29 10° SW 21:23:38 82° SE 21:30:28 10° NE
USA 238 3.5 21:17:43 10° SW 21:23:51 81° SE 21:30:41 10° NE
Cosmos 1331 Rocket 4.3 21:20:08 10° NNW 21:25:13 56° ENE 21:29:12 16° SE
Lacrosse 5 rocket 2.6 21:22:07 10° W 21:25:28 37° NNW 21:28:47 10° NE
Cosmos 1943 Rocket 2.2 21:20:23 10° SSW 21:26:02 87° WNW 21:31:43 10° NNE
SL-8 R/B 4.1 21:24:51 10° SW 21:29:12 38° SSE 21:33:35 10° E
Cosmos 1869 Rocket 4.2 21:26:22 10° N 21:30:30 42° ENE 21:33:18 18° SE
ARIANE 5 R/B 4.1 21:27:49 12° ESE 21:31:07 26° ENE 21:34:48 10° N
BREEZE-M DEB (TANK) 4.3 21:14:52 10° W 21:36:19 88° S 21:41:43 10° E
Cosmos 1515 Rocket 3.5 21:36:36 16° S 21:40:02 86° E 21:44:22 10° N
Meteor 1-12 Rocket 4.4 21:37:28 10° NNW 21:43:11 74° W 21:47:41 17° S
USA 81 4.1 21:40:14 10° N 21:45:32 75° E 21:49:12 20° SSE
Okean 2 3.6 21:42:54 14° SSW 21:46:09 62° WNW 21:50:00 10° N
ALOS 2 3.9 21:44:00 15° ESE 21:47:02 31° ENE 21:50:55 10° N
Cosmos 1048 Rocket 4.1 21:43:50 16° S 21:47:51 59° ESE 21:53:04 10° NNE
Cosmos 1680 Rocket 3.9 21:43:15 10° SW 21:48:23 62° WNW 21:53:34 10° NNE
COSMOS 2406 3.5 21:45:19 10° NNW 21:50:59 65° ENE 21:55:18 18° SE
Cosmos 1400 Rocket 2.7 21:47:29 10° NNW 21:51:08 65° W 21:53:10 23° S
Cosmos 2369 Rocket 3.7 21:50:39 16° SE 21:52:55 20° E 21:56:54 10° NE
Cosmos 2056 Rocket 4.5 21:50:51 10° NW 21:55:30 37° WSW 21:59:06 16° SSW
IKONOS-2 4.3 21:54:19 10° NNE 21:58:26 81° ESE 22:01:06 21° S
Cosmos 1295 Rocket 4.4 21:52:49 10° N 21:58:57 88° W 22:03:19 20° S
ARIANE 6 FM1 Upper Stage 3.7 21:58:06 24° SE 21:59:06 26° ESE 22:02:34 10° ENE
Cosmos 1656 Rocket 3.9 21:59:36 20° S 22:03:10 50° ESE 22:08:33 10° NE
USA 215 3.3 22:00:49 10° ESE 22:07:22 88° NNE 22:13:56 10° WNW
Cosmos 1302 Rocket 4.4 22:04:49 10° NNW 22:10:03 59° ENE 22:13:43 20° SE
USA 276 1.4 22:09:32 10° WSW 22:11:56 61° SSE 22:14:37 10° E
Okean 1-7 4.0 22:12:10 23° SE 22:14:01 33° E 22:17:49 10° NNE
Cosmos 2074 Rocket 4.0 22:08:09 10° NNW 22:14:23 80° W 22:18:40 21° S
NOSS 2-1 (E) 3.7 22:13:07 10° WSW 22:16:44 51° NW 22:19:47 10° NE
Spot 4 3.9 22:17:54 24° SSE 22:20:49 75° ENE 22:25:39 10° NNW
Cosmos 1328 3.5 22:21:51 33° S 22:23:16 66° E 22:26:48 10° NNE
NOSS 3-1 (C) 3.5 22:21:46 26° SSE 22:23:46 37° ESE 22:28:46 10° NE
Helios 1B rocket 2.0 22:24:53 33° S 22:26:17 73° WSW 22:29:45 10° NNW
USA 308 1.9 22:26:25 49° S 22:26:51 56° SSE 22:30:36 10° ENE
Lacrosse 4 Rocket 2.6 22:25:00 10° NNW 22:28:58 38° NE 22:32:23 13° ESE
Cosmos 1812 3.8 22:30:43 10° WNW 22:31:08 12° WNW 22:31:08 12° WNW
USA 59 Rocket 1.6 22:32:45 10° W 22:35:26 23° NW 22:37:54 10° NNE
Cosmos 1441 Rocket 4.2 22:33:46 17° SW 22:35:44 33° WNW 22:38:43 10° N
CSL-04 DEB 4.0 22:35:05 33° S 22:36:36 82° WSW 22:40:17 10° NNW
ATLAS 5 CENTAUR R/B 0.5 22:37:18 47° S 22:37:48 57° SE 22:40:50 10° NE
Cosmos 1992 Rocket 4.3 22:34:16 10° NNW 22:39:25 60° ENE 22:42:56 20° SE
Nadezhda 1 Rocket 4.0 22:36:02 22° S 22:40:10 86° E 22:46:28 10° N
BREEZE-M DEB (TANK) 2.8 22:33:46 10° WNW 22:40:26 89° SSW 22:42:17 19° ESE
COSMOS 2455 3.9 22:38:34 21° SE 22:41:03 28° ESE 22:46:03 10° NE
Meteor 1-24 Rocket 4.2 22:41:09 24° SSE 22:44:41 53° E 22:50:32 10° NNE
GEOS 3 Rocket 3.9 22:40:59 13° SE 22:45:47 72° NE 22:51:11 10° NW
Exosat Rocket 4.3 22:44:01 21° SSW 22:48:13 76° ESE 22:56:35 10° NNE
Cosmos 2344 4.5 22:41:11 10° WSW 22:48:18 48° NNW 22:55:27 10° NE
Cosmos 2082 Rocket 3.6 22:47:56 10° NW 22:52:25 25° WSW 22:55:23 16° SW
Cosmos 1452 Rocket 4.1 22:48:10 10° NW 22:53:09 44° WSW 22:55:52 24° SSW
Helios 1A 4.3 22:49:44 10° N 22:53:17 32° WNW 22:56:22 13° SW
ACS3 Solar Sail 2.7 22:48:27 10° NNE 22:53:32 32° E 22:56:47 19° SE
MetOp-A 3.7 22:52:47 27° SE 22:54:38 54° ENE 22:58:19 10° N
Cosmos 1869 4.0 22:52:08 10° N 22:55:22 36° ENE 22:56:49 25° ESE
Cosmos 967 Rocket 4.5 22:50:18 15° SSW 22:55:43 82° SE 23:02:13 10° NE
SL-4 R/B 1.3 22:55:58 40° SSW 22:56:46 55° SSE 22:59:52 10° ENE
Cosmos 2278 Rocket 4.0 22:53:41 10° WSW 22:58:39 30° NW 23:03:38 10° NNE
Cosmos 614 Rocket 4.3 22:57:56 17° SW 23:01:49 62° WNW 23:06:51 10° NNE
Lacrosse 5 rocket 3.3 22:59:35 10° WNW 23:02:39 26° N 23:05:38 10° ENE
ARIANE 5 R/B 3.4 23:05:10 25° SSW 23:07:15 42° W 23:11:27 10° NNW
Meteor 2-5 Rocket 3.9 23:04:24 26° S 23:07:49 68° E 23:13:41 10° NNE
Cosmos 546 4.4 23:05:49 10° W 23:09:35 70° SSW 23:12:52 13° ESE
SL-8 Rocket 3.9 23:04:14 10° N 23:10:25 87° E 23:14:17 25° S
CENTAUR R/B 4.5 23:03:25 10° NW 23:10:28 40° NNE 23:18:50 10° E
Cosmos 1943 Rocket 4.5 23:06:13 10° W 23:10:35 22° NW 23:14:56 10° NNE
SL-8 R/B 3.5 23:06:27 10° WSW 23:11:09 70° S 23:15:53 10° E
SAR-Lupe-2 3.3 23:15:20 44° S 23:16:11 69° WSW 23:19:24 10° NNW
CZ-2C R/B 3.0 23:11:30 10° NNE 23:16:55 83° ESE 23:19:49 27° S
CZ-2C R/B 2.6 23:16:25 26° SSE 23:19:29 89° ENE 23:24:50 10° NNW
Meteor 2-15 4.4 23:13:39 10° NNW 23:19:45 78° W 23:23:25 25° S
Cosmos 1733 Rocket 3.9 23:16:08 10° NNW 23:20:07 38° W 23:22:03 24° SW
CZ-3B R/B 4.4 23:16:36 21° SSW 23:21:15 58° SE 23:48:37 10° ENE
Cosmos 1833 4.2 23:16:01 10° NNW 23:21:43 89° ENE 23:25:37 21° SSE
ALOS 2 3.6 23:21:23 23° SW 23:23:19 34° W 23:27:20 10° NNW
SL-12 R/B(2) 4.4 23:15:35 10° SW 23:23:37 88° NW 23:33:41 10° NE
Cosmos 2341 Rocket 4.0 23:18:48 10° NNW 23:25:03 78° W 23:28:53 25° S
Cosmos 1707 Rocket 4.0 23:22:47 25° SW 23:25:09 55° WNW 23:29:30 10° N
Cosmos 1959 Rocket 4.5 23:20:13 10° N 23:26:30 90° ENE 23:30:32 24° S
Cosmos 2228 Rocket 3.1 23:26:00 29° SSW 23:28:11 73° WNW 23:32:36 10° N
Cosmos 1703 Rocket 3.8 23:26:16 29° SSE 23:28:17 60° E 23:32:38 10° NNE
Cosmos 1356 Rocket 3.3 23:26:35 10° NNW 23:30:37 72° W 23:32:18 33° S
Landsat 5 4.1 23:27:12 10° NNE 23:30:42 37° E 23:32:03 27° SE
USA 290 2.8 23:27:48 10° NW 23:30:45 38° WSW 23:31:10 36° SW
Meteor 2-13 Rocket 4.4 23:27:03 25° S 23:30:53 86° W 23:37:02 10° N
Cosmos 2297 Rocket 4.3 23:27:37 10° NNW 23:32:18 26° NE 23:36:58 10° E
Cosmos 2369 Rocket 2.3 23:32:23 20° SW 23:36:17 76° WNW 23:41:56 10° NNE
Cosmos 1315 Rocket 3.5 23:33:13 10° NNW 23:36:46 37° W 23:38:04 28° SW
ARIANE 6 FM1 Upper Stage 3.3 23:34:00 11° WSW 23:37:51 54° NW 23:41:53 10° NE
Cosmos 2297 3.8 23:36:40 21° SSW 23:40:35 81° WNW 23:46:22 10° NNE
USA 276 1.6 23:41:57 10° W 23:44:36 85° S 23:47:31 10° E
USA 308 3.2 23:45:45 10° W 23:48:54 54° NNW 23:53:02 10° ENE
Cosmos 540 Rocket 4.4 23:44:47 10° NNW 23:49:40 44° ENE 23:54:31 10° SE
USA 215 3.8 23:47:35 23° S 23:50:51 36° SW 23:56:48 10° WNW
In-Cosmos 22 Rocket 4.5 23:50:25 23° SSE 23:53:46 59° E 23:59:19 10° NNE
